Location: La Fredeussais
(48.1780°N, 1.3980°W)
Time: 05:11:45
(UTC+00:00)

STARLINK-2695 - Pass Details

Date: 02 December 2021
Orbit: 546 x 548 km, 53.1° (Epoch: 25 January)

Event Time Altitude Azimuth Distance (km) Brightness Sun altitude
Rises 18:09:42 0° 258° (WSW) 2,715 8.9 -18.6°
Reaches altitude 10° 18:11:58 10° 263° (W) 1,823 7.5 -19.0°
Maximum altitude 18:16:03 57° 343° (NNW) 655 3.9 -19.6°
Enters shadow 18:17:00 44° 32° (NNE) 767 4.0 -19.8°
